Regional Weather Roundup
Issued by NWS Grand Forks, ND

Home | Current Version | Previous Version | Graphics & Text | Print | Product List | Glossary On
Versions: 1 2 3 4 5 6 7 8 9 10 11 12 13 14 15 16 17 18 19 20 21 22 23 24 25 26 27 28 29 30 31 32 33 34 35 36 37 38 39 40 41 42 43 44 45 46 47 48 49 50
075
ASUS43 KFGF 310331
RWRFGF
PRAIRIE TO PINES  WEATHER ROUNDUP
NATIONAL WEATHER SERVICE EASTERN NORTH DAKOTA/GRAND FORKS ND
1000 PM CDT MON MAY 30 2016

 **SATELLITE DATA USED TO AUGMENT SKY COVER AT AUTOMATED STATIONS**
 *****  WEATHER ACROSS EASTERN NORTH DAKOTA  *****

CITY           SKY/WX    TMP DP  RH WIND       PRES   REMARKS
GRAND FORKS    LGT RAIN  60  56  86 N9        29.84F
GRAND FRKS AFB LGT RAIN  59  57  94 E10       29.84F
GRAND FRKS NWS   N/A     55 N/A N/A NE6         N/A
DEVILS LAKE    CLOUDY    60  55  83 E13       29.80F
FARGO          CLOUDY    68  55  63 NW22G32   29.74R
WAHPETON ARPT  CLOUDY    70  54  56 SE10      29.76S
$$

 ***** WEATHER ACROSS CENTRAL AND WESTERN NORTH DAKOTA  *****

CITY           SKY/WX    TMP DP  RH WIND       PRES   REMARKS
BISMARCK       LGT RAIN  57  54  89 N14       29.83R
MINOT          LGT RAIN  58  54  86 N5        29.86S
JAMESTOWN      TSTM      57  56  96 SE5       29.76F FOG
MINOT AFB      DRIZZLE   57  54  92 N7        29.85F
GARRISON         N/A     56  53  90 E7        29.85R
WILLISTON      CLOUDY    55  52  89 CALM      29.90S
DICKINSON      CLOUDY    52  50  93 W17       29.91R
HETTINGER      PTCLDY    51  47  86 NW14      29.96R
$$

 *****  OTHER AIRPORT OBSERVATIONS IN OUR AREA  *****

CITY           SKY/WX    TMP DP  RH WIND       PRES   REMARKS
WALHALLA       FAIR      63  57  82 SE6       29.86F
GRAFTON AIRPOR DRIZZLE   61  59  94 NE10      29.86F
VALLEY CITY AR TSTM      57  57 100 E7        29.83R
CANDO          CLOUDY    57  55  94 N8        29.85F
CAVALIER APRT  FAIR      64  55  72 SE12G20   29.85S
GWINNER        MOCLDY    61  57  88 NW22G32   29.79R
SHEYENNE NWR     N/A     72  55  55 SE9       29.95
ROLLA          LGT RAIN  57  55  94 W7        29.87F
 ***** THE ABOVE OBSERVATIONS ARE NON NWS ARE NOT QUALITY
       CONTROLLED AND MAY MIS-REPORT RAIN FOR SNOW...
$$

  *****  WEATHER ACROSS NORTHERN MINNESOTA  *****

CITY           SKY/WX    TMP DP  RH WIND       PRES   REMARKS
FLAG ISLAND    CLOUDY    63  50  63 E10G16    29.94R
WARROAD        CLOUDY    63  57  82 E15       29.93R
ROSEAU         MOCLDY    64  55  72 E20       29.90R
HALLOCK        LGT RAIN  63  59  88 E5        29.87S
THF RVR FALLS  CLOUDY    64  52  63 NE8       29.85F
BAUDETTE       PTCLDY    65  49  56 E17       29.92R
WASKISH        MOCLDY    66  52  59 E8        29.91R
CROOKSTON      LGT RAIN  57  57 100 N14       29.86S
STEPHEN NDAWN    N/A     61  57  88 W6          N/A
GREENBUSH NDAW   N/A     63  59  88 NW3         N/A
$$
  *****  WEATHER ACROSS CENTRAL AND WEST MINNESOTA  *****

CITY           SKY/WX    TMP DP  RH WIND       PRES   REMARKS
FOSSTON        CLOUDY    66  52  59 E9        29.84S
BEMIDJI        CLOUDY    62  55  80 E7        29.88S
PARK RAPIDS    LGT RAIN  69  54  58 SE5       29.88R
ELBOW LAKE     FAIR      73  55  53 SE14      29.78F
WADENA         CLOUDY    70  54  56 E8        29.85S
DETROIT LAKES  CLOUDY    68  54  60 E8        29.82F
MOORHEAD       CLOUDY    73  55  53 SE13G20   29.73F
FERGUS FALLS   CLOUDY    73  55  53 SE14      29.74F
MORRIS MN      LGT RAIN  72  57  60 SE15      29.79R
STAPLES        CLOUDY    70  52  52 E5        29.86S
$$
  *****  WEATHER ELSEWHERE ACROSS MINNESOTA  *****

CITY           SKY/WX    TMP DP  RH WIND       PRES   REMARKS
DULUTH         CLOUDY    65  44  46 E13       29.96R
INTRNTL FALLS  PTCLDY    63  49  60 E12       29.96R
ELY            CLEAR     63  46  55 E8        30.00R
CLOQUET        PTCLDY    64  52  63 E5        29.95R
WHEATON        CLOUDY    75  55  50 SE9       29.77S
BRAINERD       MOCLDY    69  53  56 E3        29.90R
HIBBING        CLOUDY    67  47  48 E7        29.95R
ALEXANDRIA     PTCLDY    72  50  45 SE14      29.84S
SAINT CLOUD    PTCLDY    73  52  47 E7        29.87S
MINNEAPOLIS    CLOUDY    75  53  46 SE12      29.89S
$$

  *****  WEATHER ACROSS SOUTH DAKOTA  *****

CITY           SKY/WX    TMP DP  RH WIND       PRES   REMARKS
SIOUX FALLS    CLOUDY    74  59  59 S13G22    29.80R
BROOKINGS      CLOUDY    71  57  61 SE10      29.79R
WATERTOWN      CLOUDY    73  55  53 SE7       29.77F
HURON          LGT RAIN  74  62  66 S14G22    29.75R
SISSETON         N/A     71  55  56 S8        29.74F
ABERDEEN       RAIN      60  57  89 E7        29.79S
MITCHELL       TSTM      74  61  63 W10       29.77R
PIERRE         CLOUDY    59  56  89 W7        29.86R
MOBRIDGE       MOCLDY    59  54  83 NW12      29.80R
RAPID CITY     LGT RAIN  54  45  71 NW17      29.99S
$$

  *****  SOME WEATHER IN NEARBY STATES *****

CITY           SKY/WX    TMP DP  RH WIND       PRES   REMARKS
GLASGOW MT     CLOUDY    51  42  71 W15       29.95F
GREAT FALLS MT CLOUDY    52  37  56 N6        30.17R
CHEYENNE WY    MOCLDY    58  42  55 SW8       30.04S
SCOTTSBLUFF NE PTCLDY    59  49  69 N16G23    29.97R
OMAHA NE       CLOUDY    67  61  81 SE12      29.88F
DES MOINES IA  CLOUDY    72  55  55 S9        29.91F
DAVENPORT IA   CLEAR     76  61  59 SW7       29.96R
CHICAGO IL     MOCLDY    71  55  56 E8        29.98R
EAU CLAIRE WI  CLOUDY    67  56  67 CALM      29.94R
LA CROSSE WI   CLOUDY    72  56  57 E6        29.93S
$$

  *****  SOME NATIONAL WEATHER *****

CITY           SKY/WX    TMP DP  RH WIND       PRES   REMARKS
LA GUARDIA NY  CLOUDY    75  72  90 SW10      29.95R
RALEIGH NC     LGT RAIN  72  70  93 SE3       29.96F
ATLANTA GA     MOCLDY    79  59  50 CALM      29.96R
NEW ORLEANS LA PTCLDY    78  69  73 S7        29.96R
OKLAHOMA CITY  PTCLDY    72  67  84 SE10      29.92R
ALBUQUERQUE NM MOCLDY    75  31  19 S6        29.97R
SALT LAKE CITY MOCLDY    74  34  23 W7        30.02S
LOS ANGELES CA PTCLDY    61  55  81 W12       29.92S
BOISE ID       CLEAR     71  28  20 W10       30.06S
SEATTLE WA     MOCLDY    66  43  43 N12       30.20F
$$

*** WEATHER ACROSS MANITOBA...SASKATCHEWAN AND ONTARIO ***
                ***ONTARIO***

CITY           SKY/WX    TMP DP  RH WIND       PRES   REMARKS
GERALDTON      PTCLDY    45  41  87 N3        30.08R
THUNDER BAY    PTCLDY    54  45  71 NE8       30.08R
SIOUX LOOKOUT  PTCLDY    52  46  82 E3        30.08
TORONTO        CLEAR     70  52  52 N10       29.96R
BIG TROUT LK   CLEAR     43  30  61 NE6       30.18R
PICKLE LAKE    NOT AVBL
DRYDEN         CLEAR     54  46  76 E10       30.04R
KENORA         MOCLDY    59  46  63 E16       30.01R
$$
                *** MANITOBA***

CITY           SKY/WX    TMP DP  RH WIND       PRES   REMARKS
BRANDON        CLOUDY    64  54  68 E17G23    29.86F
DAUPHIN        CLOUDY    59  54  82 NE12G17   29.94S
ISLAND LAKE    PTCLDY    48  37  66 N3        30.13R
PILOT MOUND      N/A     63  54  72 SW9         N/A
THE PAS        PTCLDY    55  45  67 E9        30.08R
THOMPSON       PTCLDY    52  36  54 NE8       30.17R
WINNIPEG       MOCLDY    66  52  59 E14G22    29.89S
LYNN LAKE      CLOUDY    45  41  87 E5        30.18S
CHURCHILL      PTCLDY    30  28  93 E10       30.39S WCI  21
GILLAM         PTCLDY    39  30  70 E8        30.27R
$$
                ***SASKATCHEWAN***

CITY           SKY/WX    TMP DP  RH WIND       PRES   REMARKS
ESTEVAN        LGT RAIN  54  52  94 NW13      29.89F
KINDERSLEY     LGT RAIN  50  46  87 NW12      30.03R
LLOYDMINSTER   CLOUDY    54  48  82 N10       30.09R
PRINCE ALBERT  CLOUDY    57  48  72 NE8       30.02R
REGINA         LGT RAIN  55  52  88 NE10      29.93R
YORKTON        CLOUDY    59  50  72 NE9       29.93R
N. BATTLEFORD  CLOUDY    59  46  63 N6        30.04R
LA RONGE       CLOUDY    52  48  87 NE8       30.09S
SASKATOON      MOCLDY    57  46  67 NE8       30.00S
SWIFT CURRENT  CLOUDY    52  50  93 N8        29.94R
$$
NOTE: THESE ARE AUTOMATED STATIONS WITH LIMITED QUALITY CONTROL
      "FAIR" INDICATES FEW OR NO CLOUDS BELOW 12,000 FEET WITH NO
      SIGNIFICANT WEATHER AND/OR OBSTRUCTIONS TO VISIBILITY.
      SKY/WX - SKY CONDITION AND SIGNIFICANT WEATHER.
      TMP - AIR TEMPERATURE.    DP   - DEWPOINT TEMPERATURE.
      RH  - RELATIVE HUMIDITY.  PRES - PRESSURE.
      HX  - HEAT INDEX.         WCI  - WIND CHILL INDEX.
$




USA.gov is the U.S. government's official web portal to all federal, state and local government web resources and services.